User: anonymous   Login
Location: Petruro
(41.0333°N, 14.7833°E)
Time: 09:34:37
(UTC+00:00)
Language:

SL-16 R/B - Orbit

View from above orbital plane
View from above orbital plane
View from above satellite
View from above satellite

Ground track
Ground track

The orbit data is extracted from the following two-line orbital elements,

1 27006U 01056F   21265.61927353 -.00000046  00000-0 -15317-5 0  9993
2 27006  99.5388  37.8971 0014129 222.0965 149.2287 13.70968601989951
Epoch (UTC): 22 September 2021 14:51:45
Eccentricity: 0.0014129
inclination: 99.5388°
perigee height: 985 km
apogee height: 1006 km
right ascension of ascending node: 37.8971°
argument of perigee: 222.0965°
revolutions per day: 13.70968601
mean anomaly at epoch: 149.2287°
orbit number at epoch: 98995

The dashed part of the orbit path shows where the satellite is in the earth's shadow,  

DLR